Hourly Weather Holhol

Today, 26 September, Saturday

Time Temperature Precipitation Wind Pressure Humidity
00:00 +32°C° 0 mm 2 mps 710 mmHg 54%
01:00 +31°C° 0 mm 1 mps 710 mmHg 55%
02:00 +31°C° 0 mm 1 mps 709 mmHg 55%
03:00 +30°C° 0 mm 1 mps 709 mmHg 56%
04:00 +30°C° 0 mm 1 mps 709 mmHg 57%
05:00 +30°C° 0 mm 1 mps 710 mmHg 58%
06:00 +29°C° 0 mm 1 mps 710 mmHg 59%
07:00 +31°C° 0 mm 1 mps 710 mmHg 52%
08:00 +32°C° 0 mm 2 mps 711 mmHg 44%
09:00 +35°C° 0 mm 2 mps 711 mmHg 38%
10:00 +36°C° 0 mm 3 mps 711 mmHg 35%
11:00 +37°C° 0 mm 3 mps 711 mmHg 32%
12:00 +38°C° 0 mm 4 mps 710 mmHg 30%
13:00 +40°C° 0 mm 4 mps 710 mmHg 28%
14:00 +40°C° 0 mm 5 mps 709 mmHg 27%
15:00 +40°C° 0 mm 5 mps 709 mmHg 24%
16:00 +39°C° 0 mm 5 mps 709 mmHg 30%
17:00 +36°C° 0 mm 5 mps 709 mmHg 36%
18:00 +35°C° 0 mm 5 mps 709 mmHg 41%
19:00 +34°C° 0 mm 4 mps 709 mmHg 45%
20:00 +33°C° 0 mm 4 mps 710 mmHg 49%
21:00 +33°C° 0 mm 3 mps 710 mmHg 53%
22:00 +31°C° 0 mm 3 mps 710 mmHg 59%
23:00 +30°C° 0 mm 3 mps 710 mmHg 65%

Tomorrow, 27 September, Sunday

Time Temperature Precipitation Wind Pressure Humidity
00:00 +29°C° 0 mm 2 mps 710 mmHg 70%
01:00 +29°C° 0 mm 2 mps 710 mmHg 71%
02:00 +29°C° 0 mm 2 mps 709 mmHg 71%
03:00 +29°C° 0 mm 2 mps 709 mmHg 72%
04:00 +28°C° 0 mm 2 mps 710 mmHg 74%
05:00 +28°C° 0 mm 2 mps 710 mmHg 76%
06:00 +28°C° 0 mm 1 mps 710 mmHg 79%
07:00 +29°C° 0 mm 2 mps 711 mmHg 70%
08:00 +30°C° 0 mm 2 mps 711 mmHg 61%
09:00 +33°C° 0 mm 3 mps 712 mmHg 52%
10:00 +34°C° 0 mm 3 mps 711 mmHg 47%
11:00 +35°C° 0 mm 3 mps 711 mmHg 43%
12:00 +37°C° 0 mm 3 mps 711 mmHg 38%
13:00 +37°C° 0 mm 4 mps 710 mmHg 36%
14:00 +37°C° 0 mm 5 mps 710 mmHg 35%
15:00 +39°C° 0 mm 5 mps 709 mmHg 33%
16:00 +37°C° 0 mm 5 mps 709 mmHg 39%
17:00 +35°C° 0 mm 4 mps 709 mmHg 44%
18:00 +34°C° 0 mm 4 mps 709 mmHg 50%
19:00 +33°C° 0 mm 4 mps 710 mmHg 59%
20:00 +30°C° 0 mm 4 mps 710 mmHg 69%
21:00 +29°C° 0 mm 4 mps 710 mmHg 78%
22:00 +29°C° 0 mm 4 mps 710 mmHg 78%
23:00 +29°C° 0 mm 3 mps 710 mmHg 77%

Day after tomorrow, 28 September, Monday

Time Temperature Precipitation Wind Pressure Humidity
00:00 +29°C° 0 mm 2 mps 710 mmHg 77%
01:00 +29°C° 0 mm 2 mps 710 mmHg 77%
02:00 +28°C° 0 mm 2 mps 710 mmHg 77%
03:00 +28°C° 0 mm 2 mps 710 mmHg 77%
04:00 +28°C° 0 mm 2 mps 710 mmHg 78%
05:00 +28°C° 0 mm 1 mps 710 mmHg 80%
06:00 +28°C° 0 mm 1 mps 711 mmHg 81%
07:00 +29°C° 0 mm 2 mps 711 mmHg 73%
08:00 +30°C° 0 mm 2 mps 712 mmHg 64%
09:00 +33°C° 0 mm 3 mps 712 mmHg 55%
10:00 +34°C° 0 mm 3 mps 712 mmHg 50%
11:00 +35°C° 0 mm 4 mps 712 mmHg 44%
12:00 +37°C° 0 mm 4 mps 712 mmHg 39%
13:00 +37°C° 0 mm 5 mps 711 mmHg 40%
14:00 +37°C° 0 mm 5 mps 710 mmHg 41%
15:00 +38°C° 0 mm 6 mps 710 mmHg 42%
16:00 +36°C° 0 mm 5 mps 710 mmHg 45%
17:00 +35°C° 0 mm 4 mps 710 mmHg 49%
18:00 +33°C° 0 mm 4 mps 710 mmHg 53%
19:00 +33°C° 0 mm 4 mps 710 mmHg 58%
20:00 +32°C° 0 mm 4 mps 710 mmHg 63%
21:00 +30°C° 0 mm 4 mps 711 mmHg 68%
22:00 +29°C° 0 mm 3 mps 711 mmHg 71%
23:00 +29°C° 0 mm 3 mps 711 mmHg 74%

29 September, Tuesday

Time Temperature Precipitation Wind Pressure Humidity
00:00 +28°C° 0 mm 3 mps 711 mmHg 77%
01:00 +28°C° 0 mm 2 mps 711 mmHg 78%
02:00 +28°C° 0 mm 2 mps 710 mmHg 80%
03:00 +28°C° 0 mm 2 mps 710 mmHg 81%
04:00 +27°C° 0 mm 1 mps 710 mmHg 82%
05:00 +27°C° 0 mm 1 mps 711 mmHg 82%
06:00 +27°C° 0 mm 1 mps 711 mmHg 83%
07:00 +28°C° 0 mm 1 mps 711 mmHg 76%
08:00 +30°C° 0 mm 2 mps 712 mmHg 69%
09:00 +31°C° 0 mm 2 mps 712 mmHg 62%
10:00 +32°C° 0 mm 2 mps 712 mmHg 55%
11:00 +35°C° 0 mm 3 mps 712 mmHg 49%
12:00 +36°C° 0 mm 4 mps 711 mmHg 42%
13:00 +36°C° 0 mm 4 mps 710 mmHg 43%
14:00 +36°C° 0 mm 5 mps 710 mmHg 45%
15:00 +36°C° 0 mm 6 mps 709 mmHg 46%
16:00 +35°C° 0 mm 5 mps 709 mmHg 53%
17:00 +34°C° 0 mm 5 mps 709 mmHg 59%
18:00 +32°C° 0 mm 4 mps 709 mmHg 65%
19:00 +32°C° 0 mm 4 mps 709 mmHg 66%
20:00 +30°C° 0 mm 4 mps 710 mmHg 68%
21:00 +30°C° 0 mm 3 mps 710 mmHg 70%
22:00 +29°C° 0 mm 3 mps 710 mmHg 74%
23:00 +29°C° 0 mm 3 mps 710 mmHg 79%

30 September, Wednesday

Time Temperature Precipitation Wind Pressure Humidity
00:00 +28°C° 0 mm 3 mps 710 mmHg 83%
01:00 +28°C° 0 mm 3 mps 709 mmHg 83%
02:00 +28°C° 0 mm 2 mps 709 mmHg 83%
03:00 +28°C° 0 mm 1 mps 709 mmHg 83%
04:00 +28°C° 0 mm 1 mps 709 mmHg 82%
05:00 +28°C° 0 mm 1 mps 709 mmHg 82%
06:00 +28°C° 0 mm 1 mps 710 mmHg 81%
07:00 +29°C° 0 mm 2 mps 710 mmHg 75%
08:00 +30°C° 0 mm 2 mps 711 mmHg 68%
09:00 +31°C° 0 mm 2 mps 711 mmHg 62%
10:00 +34°C° 0 mm 3 mps 711 mmHg 55%
11:00 +35°C° 0 mm 4 mps 710 mmHg 49%
12:00 +36°C° 0 mm 4 mps 710 mmHg 42%
13:00 +36°C° 0 mm 5 mps 709 mmHg 45%
14:00 +36°C° 0 mm 6 mps 708 mmHg 47%
15:00 +36°C° 0 mm 6 mps 708 mmHg 50%
16:00 +35°C° 0 mm 5 mps 707 mmHg 54%
17:00 +34°C° 0 mm 5 mps 707 mmHg 59%
18:00 +32°C° 0 mm 4 mps 707 mmHg 63%
19:00 +32°C° 0 mm 4 mps 708 mmHg 67%
20:00 +30°C° 0 mm 5 mps 708 mmHg 72%
21:00 +29°C° 0 mm 5 mps 709 mmHg 76%
22:00 +29°C° 0 mm 5 mps 709 mmHg 78%
23:00 +29°C° 0 mm 4 mps 709 mmHg 80%

1 October, Thursday

Time Temperature Precipitation Wind Pressure Humidity
00:00 +28°C° 0 mm 4 mps 709 mmHg 82%
01:00 +28°C° 0 mm 3 mps 709 mmHg 82%
02:00 +28°C° 0 mm 3 mps 708 mmHg 82%
03:00 +28°C° 0 mm 2 mps 708 mmHg 82%
04:00 +28°C° 0 mm 2 mps 709 mmHg 82%
05:00 +28°C° 0 mm 2 mps 709 mmHg 83%
06:00 +27°C° 0 mm 2 mps 709 mmHg 83%
07:00 +28°C° 0 mm 2 mps 710 mmHg 78%
08:00 +29°C° 0 mm 3 mps 710 mmHg 73%
09:00 +30°C° 0 mm 3 mps 711 mmHg 68%
10:00 +31°C° 0 mm 3 mps 711 mmHg 64%
11:00 +33°C° 0 mm 3 mps 710 mmHg 61%
12:00 +34°C° 0 mm 3 mps 710 mmHg 57%
13:00 +35°C° 0 mm 4 mps 709 mmHg 53%
14:00 +35°C° 0 mm 4 mps 709 mmHg 49%
15:00 +36°C° 0 mm 5 mps 708 mmHg 46%
16:00 +35°C° 0 mm 5 mps 708 mmHg 52%
17:00 +34°C° 0 mm 4 mps 708 mmHg 58%
18:00 +33°C° 0 mm 4 mps 708 mmHg 64%
19:00 +32°C° 0 mm 4 mps 709 mmHg 67%
20:00 +30°C° 0 mm 4 mps 709 mmHg 70%
21:00 +30°C° 0 mm 4 mps 710 mmHg 73%
22:00 +29°C° 0 mm 4 mps 710 mmHg 75%
23:00 +29°C° 0 mm 4 mps 710 mmHg 77%
Show more